| time (UTC) | temp F | wind direction | speed knots | gust knots | rain 1hr in | rain 24hr in | rain mn in | humidity % | barometer mb |
| 20260504081714 | 48 | 156 | 0.0 | 0.9 | 0.00 | 0.00 | 0.00 | 77 | 1016.5 |
| 20260504081210 | 48 | 184 | 0.0 | 0.9 | 0.00 | 0.00 | 0.00 | 76 | 1016.6 |
| 20260504080707 | 48 | 145 | 0.0 | 0.0 | 0.00 | 0.00 | 0.00 | 75 | 1016.6 |
| 20260504080203 | 48 | 183 | 0.0 | 0.0 | 0.00 | 0.00 | 0.00 | 75 | 1016.5 |
| 20260504070131 | 49 | 215 | 0.0 | 0.0 | 0.00 | 0.00 | 0.00 | 72 | 1016.5 |
| 20260504050520 | 49 | 243 | 2.6 | 2.6 | 0.00 | 0.00 | 0.00 | 65 | 1016.6 |
| 20260504050017 | 49 | 227 | 0.0 | 0.9 | 0.00 | 0.00 | 0.00 | 67 | 1016.5 |
| 20260504045513 | 49 | 224 | 0.0 | 0.9 | 0.00 | 0.00 | 0.00 | 66 | 1016.6 |
| 20260504045009 | 50 | 227 | 1.7 | 1.7 | 0.00 | 0.00 | 0.00 | 66 | 1016.5 |
| 20260504044506 | 50 | 207 | 0.0 | 0.9 | 0.00 | 0.00 | 0.00 | 68 | 1016.5 |
| 20260504044003 | 50 | 130 | 0.9 | 0.9 | 0.00 | 0.00 | 0.00 | 66 | 1016.4 |
| 20260504043500 | 50 | 225 | 1.7 | 1.7 | 0.00 | 0.00 | 0.00 | 67 | 1016.5 |
| 20260504042958 | 50 | 221 | 1.7 | 1.7 | 0.00 | 0.00 | 0.00 | 68 | 1016.4 |
| 20260504042454 | 50 | 216 | 0.9 | 0.9 | 0.00 | 0.00 | 0.00 | 73 | 1016.4 |
| 20260504041951 | 50 | 223 | 0.9 | 0.9 | 0.00 | 0.00 | 0.00 | 74 | 1016.3 |
| 20260504041447 | 50 | 222 | 0.9 | 0.9 | 0.00 | 0.00 | 0.00 | 73 | 1016.2 |
| 20260504040943 | 51 | 240 | 0.9 | 0.9 | 0.00 | 0.00 | 0.00 | 72 | 1016.0 |
| 20260504040441 | 51 | 147 | 0.0 | 0.0 | 0.00 | 0.00 | 0.00 | 71 | 1016.1 |
| 20260504035937 | 51 | 231 | 0.9 | 0.9 | 0.00 | 0.00 | 0.00 | 69 | 1016.1 |
| 20260504035435 | 51 | 244 | 0.9 | 1.7 | 0.00 | 0.00 | 0.00 | 70 | 1016.0 |
| 20260504034931 | 51 | 258 | 2.6 | 2.6 | 0.00 | 0.00 | 0.00 | 69 | 1016.0 |
| 20260504034429 | 51 | 221 | 0.9 | 0.9 | 0.00 | 0.00 | 0.00 | 65 | 1016.1 |
| 20260504033925 | 51 | 228 | 0.0 | 0.0 | 0.00 | 0.00 | 0.00 | 60 | 1015.9 |
| 20260504033423 | 52 | 219 | 0.0 | 0.0 | 0.00 | 0.00 | 0.00 | 57 | 1015.9 |
| 20260504032920 | 52 | 222 | 0.0 | 0.9 | 0.00 | 0.00 | 0.00 | 56 | 1015.8 |
| 20260504032417 | 52 | 239 | 1.7 | 1.7 | 0.00 | 0.00 | 0.00 | 56 | 1016.0 |
| 20260504031914 | 52 | 234 | 0.9 | 0.9 | 0.00 | 0.00 | 0.00 | 57 | 1015.9 |
| 20260504031411 | 52 | 238 | 0.0 | 0.0 | 0.00 | 0.00 | 0.00 | 59 | 1015.9 |
| 20260504030907 | 51 | 223 | 1.7 | 2.6 | 0.00 | 0.00 | 0.00 | 59 | 1015.7 |
| 20260504030404 | 52 | 188 | 0.0 | 0.0 | 0.00 | 0.00 | 0.00 | 59 | 1015.7 |
| 20260504025900 | 52 | 230 | 0.9 | 0.9 | 0.00 | 0.00 | 0.00 | 58 | 1015.7 |
| 20260504025357 | 52 | 273 | 0.9 | 0.9 | 0.00 | 0.00 | 0.00 | 58 | 1015.8 |
| 20260504024854 | 52 | 212 | 0.0 | 0.0 | 0.00 | 0.00 | 0.00 | 57 | 1015.8 |
| 20260504024350 | 52 | 215 | 0.0 | 0.0 | 0.00 | 0.00 | 0.00 | 56 | 1015.7 |
| 20260504023848 | 52 | 200 | 0.0 | 0.0 | 0.00 | 0.00 | 0.00 | 56 | 1015.5 |
| 20260504023344 | 52 | 200 | 0.0 | 0.0 | 0.00 | 0.00 | 0.00 | 55 | 1016.0 |
| 20260504022840 | 52 | 208 | 0.0 | 0.0 | 0.00 | 0.00 | 0.00 | 54 | 1015.7 |
| 20260504022337 | 53 | 241 | 0.9 | 0.9 | 0.00 | 0.00 | 0.00 | 53 | 1015.6 |
| 20260504021833 | 52 | 246 | 0.9 | 0.9 | 0.00 | 0.00 | 0.00 | 52 | 1015.6 |
| 20260504021331 | 53 | 218 | 0.0 | 0.0 | 0.00 | 0.00 | 0.00 | 51 | 1016.0 |
| 20260504020828 | 53 | 228 | 0.0 | 0.0 | 0.00 | 0.00 | 0.00 | 50 | 1015.8 |
| 20260504020324 | 53 | 220 | 0.9 | 0.9 | 0.00 | 0.00 | 0.00 | 49 | 1015.9 |
| 20260504015820 | 53 | 210 | 0.0 | 0.0 | 0.00 | 0.00 | 0.00 | 49 | 1015.8 |
| 20260504015317 | 53 | 211 | 0.0 | 0.0 | 0.00 | 0.00 | 0.00 | 49 | 1015.9 |
| 20260504014813 | 53 | 247 | 0.9 | 0.9 | 0.00 | 0.00 | 0.00 | 47 | 1015.7 |
| 20260504014309 | 53 | 191 | 0.0 | 0.0 | 0.00 | 0.00 | 0.00 | 48 | 1015.9 |
| 20260504013807 | 53 | 192 | 0.0 | 0.0 | 0.00 | 0.00 | 0.00 | 46 | 1015.7 |
| 20260504013305 | 54 | 214 | 0.0 | 0.0 | 0.00 | 0.00 | 0.00 | 44 | 1015.7 |
| 20260504012801 | 54 | 229 | 0.0 | 0.0 | 0.00 | 0.00 | 0.00 | 44 | 1015.5 |
| 20260504012259 | 55 | 215 | 0.0 | 0.0 | 0.00 | 0.00 | 0.00 | 43 | 1015.5 |
| 20260504011755 | 54 | 225 | 0.0 | 0.9 | 0.00 | 0.00 | 0.00 | 44 | 1015.3 |
| 20260504011252 | 54 | 184 | 0.0 | 0.0 | 0.00 | 0.00 | 0.00 | 44 | 1015.4 |
| 20260504010748 | 54 | 202 | 0.0 | 0.0 | 0.00 | 0.00 | 0.00 | 45 | 1015.4 |
| 20260504010244 | 54 | 142 | 0.0 | 0.0 | 0.00 | 0.00 | 0.00 | 44 | 1015.5 |
| 20260504005741 | 55 | 155 | 0.0 | 0.0 | 0.00 | 0.00 | 0.00 | 44 | 1015.4 |
| 20260504005238 | 55 | 222 | 0.9 | 0.9 | 0.00 | 0.00 | 0.00 | 42 | 1015.2 |
| 20260504004736 | 55 | 249 | 0.0 | 0.9 | 0.00 | 0.00 | 0.00 | 41 | 1015.1 |
| 20260504004232 | 55 | 216 | 0.0 | 0.9 | 0.00 | 0.00 | 0.00 | 42 | 1015.0 |
| 20260504003729 | 55 | 231 | 2.6 | 2.6 | 0.00 | 0.00 | 0.00 | 42 | 1015.0 |
| 20260504003226 | 55 | 232 | 0.9 | 1.7 | 0.00 | 0.00 | 0.00 | 43 | 1015.1 |
| 20260504002723 | 55 | 199 | 0.0 | 0.0 | 0.00 | 0.00 | 0.00 | 43 | 1015.0 |
| 20260504002220 | 55 | 236 | 0.0 | 0.0 | 0.00 | 0.00 | 0.00 | 41 | 1015.0 |
| 20260504001718 | 56 | 225 | 0.0 | 0.0 | 0.00 | 0.00 | 0.00 | 41 | 1014.6 |
| 20260504001214 | 56 | 231 | 0.0 | 0.9 | 0.00 | 0.00 | 0.00 | 41 | 1014.6 |
| 20260504000711 | 56 | 205 | 0.0 | 0.0 | 0.00 | 0.00 | 0.00 | 40 | 1014.7 |
| 20260504000208 | 56 | 284 | 0.0 | 0.9 | 0.00 | 0.00 | 0.00 | 41 | 1014.6 |
| 20260503235706 | 56 | 187 | 0.0 | 0.0 | 0.00 | 0.00 | 0.00 | 41 | 1014.3 |
| 20260503235203 | 57 | 248 | 0.0 | 0.0 | 0.00 | 0.00 | 0.00 | 40 | 1014.5 |
| 20260503234701 | 57 | 183 | 0.0 | 0.0 | 0.00 | 0.00 | 0.00 | 39 | 1014.5 |
| 20260503234159 | 57 | 234 | 0.0 | 0.9 | 0.00 | 0.00 | 0.00 | 39 | 1014.4 |
| 20260503233655 | 58 | 245 | 0.9 | 0.9 | 0.00 | 0.00 | 0.00 | 38 | 1014.3 |
| 20260503233151 | 58 | 280 | 0.9 | 1.7 | 0.00 | 0.00 | 0.00 | 37 | 1014.4 |
| 20260503232648 | 58 | 240 | 0.0 | 0.9 | 0.00 | 0.00 | 0.00 | 36 | 1014.5 |
| 20260503232145 | 58 | 272 | 0.0 | 0.9 | 0.00 | 0.00 | 0.00 | 37 | 1014.5 |
| 20260503231644 | 59 | 106 | 2.6 | 3.5 | 0.00 | 0.00 | 0.00 | 36 | 1014.4 |
| 20260503231139 | 59 | 271 | 0.9 | 0.9 | 0.00 | 0.00 | 0.00 | 37 | 1014.4 |
| 20260503230636 | 59 | 238 | 3.5 | 5.2 | 0.00 | 0.00 | 0.00 | 35 | 1014.2 |
| 20260503230134 | 59 | 244 | 0.9 | 1.7 | 0.00 | 0.00 | 0.00 | 36 | 1014.2 |
| 20260503225631 | 59 | 240 | 1.7 | 2.6 | 0.00 | 0.00 | 0.00 | 36 | 1014.2 |
| 20260503225131 | 59 | 260 | 2.6 | 2.6 | 0.00 | 0.00 | 0.00 | 35 | 1014.1 |
| 20260503224628 | 59 | 140 | 0.0 | 0.0 | 0.00 | 0.00 | 0.00 | 35 | 1014.0 |
| 20260503224126 | 59 | 232 | 0.9 | 1.7 | 0.00 | 0.00 | 0.00 | 35 | 1014.3 |
| 20260503223624 | 59 | 273 | 0.9 | 1.7 | 0.00 | 0.00 | 0.00 | 34 | 1014.2 |
| 20260503223120 | 60 | 266 | 2.6 | 2.6 | 0.00 | 0.00 | 0.00 | 34 | 1014.3 |
| 20260503222617 | 60 | 200 | 0.9 | 0.9 | 0.00 | 0.00 | 0.00 | 34 | 1014.2 |
| 20260503222115 | 61 | 256 | 2.6 | 2.6 | 0.00 | 0.00 | 0.00 | 33 | 1014.2 |
| 20260503221613 | 61 | 221 | 1.7 | 2.6 | 0.00 | 0.00 | 0.00 | 32 | 1014.3 |
| 20260503221110 | 61 | 235 | 4.3 | 6.1 | 0.00 | 0.00 | 0.00 | 32 | 1014.4 |
| 20260503220607 | 61 | 286 | 3.5 | 5.2 | 0.00 | 0.00 | 0.00 | 32 | 1014.4 |
| 20260503220104 | 61 | 333 | 2.6 | 3.5 | 0.00 | 0.00 | 0.00 | 33 | 1014.3 |
| 20260503215600 | 61 | 219 | 1.7 | 3.5 | 0.00 | 0.00 | 0.00 | 32 | 1014.3 |
| 20260503215057 | 61 | 231 | 2.6 | 6.1 | 0.00 | 0.00 | 0.00 | 32 | 1014.1 |
| 20260503214556 | 61 | 206 | 0.9 | 1.7 | 0.00 | 0.00 | 0.00 | 31 | 1014.3 |
| 20260503214052 | 61 | 231 | 2.6 | 3.5 | 0.00 | 0.00 | 0.00 | 32 | 1014.2 |
| 20260503213551 | 61 | 247 | 0.9 | 3.5 | 0.00 | 0.00 | 0.00 | 33 | 1014.2 |
| 20260503213047 | 61 | 78 | 1.7 | 2.6 | 0.00 | 0.00 | 0.00 | 32 | 1014.4 |
| 20260503212544 | 62 | 19 | 3.5 | 5.2 | 0.00 | 0.00 | 0.00 | 32 | 1014.2 |
| 20260503212042 | 62 | 242 | 3.5 | 5.2 | 0.00 | 0.00 | 0.00 | 30 | 1014.2 |
| 20260503211538 | 61 | 299 | 0.9 | 2.6 | 0.00 | 0.00 | 0.00 | 33 | 1014.4 |
| 20260503211034 | 62 | 193 | 3.5 | 5.2 | 0.00 | 0.00 | 0.00 | 30 | 1014.3 |
| 20260503210531 | 62 | 219 | 4.3 | 6.1 | 0.00 | 0.00 | 0.00 | 32 | 1014.3 |
| 20260503210027 | 62 | 291 | 1.7 | 2.6 | 0.00 | 0.00 | 0.00 | 33 | 1014.3 |
| 20260503205523 | 61 | 303 | 1.7 | 2.6 | 0.00 | 0.00 | 0.00 | 33 | 1014.3 |
| 20260503205020 | 61 | 203 | 1.7 | 2.6 | 0.00 | 0.00 | 0.00 | 33 | 1014.4 |
| 20260503204517 | 61 | 158 | 0.9 | 0.9 | 0.00 | 0.00 | 0.00 | 33 | 1014.4 |
| 20260503204014 | 60 | 277 | 5.2 | 7.0 | 0.00 | 0.00 | 0.00 | 33 | 1014.4 |
| 20260503203511 | 60 | 198 | 1.7 | 2.6 | 0.00 | 0.00 | 0.00 | 34 | 1014.4 |
| 20260503203008 | 61 | 297 | 7.0 | 8.7 | 0.00 | 0.00 | 0.00 | 33 | 1014.4 |
| 20260503202506 | 61 | 215 | 2.6 | 5.2 | 0.00 | 0.00 | 0.00 | 34 | 1014.3 |
| 20260503202004 | 60 | 287 | 3.5 | 7.0 | 0.00 | 0.00 | 0.00 | 34 | 1014.6 |
| 20260503201501 | 58 | 274 | 0.9 | 0.9 | 0.00 | 0.00 | 0.00 | 35 | 1014.5 |
| 20260503200959 | 60 | 220 | 5.2 | 6.1 | 0.00 | 0.00 | 0.00 | 34 | 1014.6 |
| 20260503200455 | 61 | 356 | 0.9 | 1.7 | 0.00 | 0.00 | 0.00 | 36 | 1014.7 |
| 20260503195951 | 62 | 222 | 2.6 | 5.2 | 0.00 | 0.00 | 0.00 | 34 | 1014.8 |
| 20260503195449 | 60 | 140 | 0.9 | 1.7 | 0.00 | 0.00 | 0.00 | 37 | 1014.8 |
| 20260503194945 | 59 | 288 | 0.9 | 1.7 | 0.00 | 0.00 | 0.00 | 36 | 1014.8 |
| 20260503194443 | 60 | 258 | 3.5 | 6.1 | 0.00 | 0.00 | 0.00 | 35 | 1014.7 |
| 20260503193937 | 60 | 235 | 6.1 | 9.6 | 0.00 | 0.00 | 0.00 | 35 | 1014.8 |
| 20260503193433 | 59 | 252 | 0.9 | 1.7 | 0.00 | 0.00 | 0.00 | 36 | 1014.8 |
| 20260503192929 | 58 | 269 | 2.6 | 5.2 | 0.00 | 0.00 | 0.00 | 36 | 1015.0 |
| 20260503192426 | 59 | 220 | 2.6 | 3.5 | 0.00 | 0.00 | 0.00 | 36 | 1014.9 |
| 20260503191921 | 58 | 221 | 3.5 | 6.1 | 0.00 | 0.00 | 0.00 | 35 | 1015.1 |
| 20260503191419 | 59 | 193 | 3.5 | 5.2 | 0.00 | 0.00 | 0.00 | 35 | 1015.2 |
| 20260503190915 | 60 | 247 | 2.6 | 3.5 | 0.00 | 0.00 | 0.00 | 34 | 1015.3 |
| 20260503190413 | 59 | 293 | 2.6 | 2.6 | 0.00 | 0.00 | 0.00 | 36 | 1015.1 |
| 20260503185909 | 58 | 311 | 0.0 | 1.7 | 0.00 | 0.00 | 0.00 | 35 | 1015.3 |
| 20260503185406 | 59 | 274 | 2.6 | 2.6 | 0.00 | 0.00 | 0.00 | 34 | 1015.2 |
| 20260503184905 | 58 | 284 | 3.5 | 5.2 | 0.00 | 0.00 | 0.00 | 35 | 1015.3 |
| 20260503184402 | 59 | 299 | 2.6 | 3.5 | 0.00 | 0.00 | 0.00 | 34 | 1015.3 |
| 20260503183858 | 58 | 215 | 5.2 | 8.7 | 0.00 | 0.00 | 0.00 | 35 | 1015.3 |
| 20260503183355 | 57 | 301 | 8.7 | 13.0 | 0.00 | 0.00 | 0.00 | 36 | 1015.4 |
| 20260503182852 | 58 | 288 | 1.7 | 3.5 | 0.00 | 0.00 | 0.00 | 35 | 1015.5 |
| 20260503182351 | 57 | 283 | 3.5 | 6.1 | 0.00 | 0.00 | 0.00 | 36 | 1015.5 |
| 20260503181848 | 57 | 238 | 5.2 | 6.1 | 0.00 | 0.00 | 0.00 | 34 | 1015.5 |
| 20260503181345 | 58 | 246 | 4.3 | 6.1 | 0.00 | 0.00 | 0.00 | 35 | 1015.4 |
| 20260503180841 | 57 | 214 | 5.2 | 7.8 | 0.00 | 0.00 | 0.00 | 34 | 1015.4 |
| 20260503180339 | 57 | 240 | 1.7 | 3.5 | 0.00 | 0.00 | 0.00 | 35 | 1015.5 |
| 20260503175835 | 59 | 275 | 3.5 | 3.5 | 0.00 | 0.00 | 0.00 | 37 | 1015.5 |
| 20260503175334 | 58 | 210 | 2.6 | 3.5 | 0.00 | 0.00 | 0.00 | 36 | 1015.7 |
| 20260503174834 | 57 | 211 | 1.7 | 2.6 | 0.00 | 0.00 | 0.00 | 36 | 1015.5 |
| 20260503174334 | 57 | 106 | 0.9 | 1.7 | 0.00 | 0.00 | 0.00 | 38 | 1015.8 |
| 20260503173833 | 56 | 209 | 1.7 | 1.7 | 0.00 | 0.00 | 0.00 | 37 | 1015.5 |
| 20260503173330 | 57 | 106 | 4.3 | 7.0 | 0.00 | 0.00 | 0.00 | 36 | 1015.5 |
| 20260503172827 | 57 | 296 | 6.1 | 7.0 | 0.00 | 0.00 | 0.00 | 35 | 1015.6 |
| 20260503172325 | 57 | 276 | 3.5 | 6.1 | 0.00 | 0.00 | 0.00 | 36 | 1015.8 |
| 20260503171820 | 55 | 225 | 4.3 | 6.1 | 0.00 | 0.00 | 0.00 | 36 | 1015.8 |
| 20260503171318 | 56 | 287 | 1.7 | 1.7 | 0.00 | 0.00 | 0.00 | 37 | 1015.9 |
| 20260503170815 | 55 | 142 | 0.0 | 0.9 | 0.00 | 0.00 | 0.00 | 41 | 1015.8 |
| 20260503170311 | 55 | 267 | 3.5 | 5.2 | 0.00 | 0.00 | 0.00 | 38 | 1016.2 |
| 20260503150704 | 51 | 217 | 1.7 | 2.6 | 0.00 | 0.00 | 0.00 | 47 | 1016.4 |
| 20260503150200 | 50 | 4 | 2.6 | 3.5 | 0.00 | 0.00 | 0.00 | 50 | 1016.5 |
| 20260503140124 | 51 | 150 | 0.0 | 0.9 | 0.00 | 0.00 | 0.00 | 50 | 1016.3 |
| 20260503131053 | 49 | 276 | 4.3 | 5.2 | 0.00 | 0.00 | 0.00 | 56 | 1016.2 |
| 20260503130550 | 48 | 267 | 1.7 | 3.5 | 0.00 | 0.00 | 0.00 | 58 | 1016.1 |
| 20260503110441 | 44 | 246 | 0.0 | 0.9 | 0.00 | 0.00 | 0.00 | 70 | 1015.2 |